Location: Unspecified
(0.0000°N, 0.0000°E)
Time: 16:38:38
(UTC+00:00)

deb Kosmos-1275 - Pass Details

Date: 09 March 2026
Orbit: 880 x 1009 km, 83.1° (Epoch: 18 April)

Event Time Altitude Azimuth Distance (km) Brightness Sun altitude
Exits shadow 05:21:19 11° 244° (WSW) 2,621 ? -12.3°
Drops below altitude 10° 05:21:45 10° 240° (WSW) 2,685 ? -12.2°
Sets 05:25:44 0° 215° (SW) 3,602 ? -11.2°
